User: anonymous   Login
Location: Oshawa
(43.9000°N, 78.8670°W)
Time: 09:09:43
(UTC-04:00)
Language:

Cosmos 1805 Rocket - Orbit

View from above orbital plane
View from above orbital plane
View from above satellite
View from above satellite

Ground track
Ground track

The orbit data is extracted from the following two-line orbital elements,

1 17192U 86097B   15214.86711133  .00000204  00000-0  22022-4 0  9991
2 17192 082.5070 178.7055 0016567 191.7523 232.1048 14.83324808547221
Epoch (UTC): 02 August 2015 20:48:38
Eccentricity: 0.0016567
inclination: 82.5070°
perigee height: 607 km
apogee height: 630 km
right ascension of ascending node: 178.7055°
argument of perigee: 191.7523°
revolutions per day: 14.83324808
mean anomaly at epoch: 232.1048°
orbit number at epoch: 54722

The dashed part of the orbit path shows where the satellite is in the earth's shadow,  

DLR